Regional Weather Roundup
Issued by NWS

Home | Current Version | Previous Version | Graphics & Text | Print | Product List | Glossary On
Versions: 1 2 3 4 5 6 7 8 9 10 11 12 13 14 15 16 17 18 19 20 21 22 23 24 25 26 27 28 29 30 31 32 33 34 35 36 37 38 39 40 41 42 43 44 45 46 47 48 49 50
000
ASUS43 KOAX 240702
RWRNE

WEATHER ROUNDUP FOR NEBRASKA
NATIONAL WEATHER SERVICE OMAHA NE
200 AM CDT THU APR 24 2014

NOTES: SATELLITE DATA IS BEING USED TO AUGMENT CLOUD COVER ABOVE
       12000 FEET.
       "FAIR" INDICATES FEW OR NO CLOUDS BELOW 12,000 FEET WITH NO
       SIGNIFICANT WEATHER AND/OR OBSTRUCTIONS TO VISIBILITY.

  * THESE STATIONS DO NOT REPORT WEATHER SUCH AS RAIN...SNOW OR FOG.

NEZ001>004-019>022-054>056-240800-
NEBRASKA PANHANDLE

CITY           SKY/WX    TMP DP  RH WIND       PRES   REMARKS
SCOTTSBLUFF    CLOUDY    46  35  65 NW9       29.89S
ALLIANCE       CLOUDY    44  36  73 NW9       29.86R
CHADRON        CLOUDY    45  35  68 SW3       29.87S
KIMBALL        CLOUDY    46  26  45 NW10      29.89F
SIDNEY         CLOUDY    48  30  49 N14       29.87R
$$

NEZ057>060-069>072-079>082-240800-
SOUTHWEST NEBRASKA

CITY           SKY/WX    TMP DP  RH WIND       PRES   REMARKS
NORTH PLATTE   CLOUDY    56  32  40 NW16G28   29.78F
IMPERIAL       CLOUDY    52  31  44 CALM      29.79F
LEXINGTON      CLOUDY    56  41  56 NW14      29.77R
MCCOOK         CLOUDY    58  33  39 NW32G40   29.78R
OGALLALA       CLOUDY    49  33  52 N20G28    29.83R
$$

NEZ005>010-023>029-035>040-094-240800-
NORTH CENTRAL NEBRASKA

CITY           SKY/WX    TMP DP  RH WIND       PRES   REMARKS
VALENTINE      CLOUDY    50  36  58 NW12      29.79R
AINSWORTH      CLOUDY    53  37  55 NW20G25   29.77R
BROKEN BOW     CLOUDY    53  38  56 N23       29.73R
O`NEILL        CLOUDY    55  38  52 NW16      29.69F
ORD            LGT RAIN  51  44  77 N13       29.69R
THEDFORD       CLOUDY    53  38  55 N15G23    29.80R
$$

NEZ041-046>049-061>064-073>077-083>087-240800-
SOUTH CENTRAL NEBRASKA

CITY           SKY/WX    TMP DP  RH WIND       PRES   REMARKS
GRAND ISLAND   LGT RAIN  56  54  93 S3        29.66S FOG
AURORA         HVY RAIN  55  55 100 E8        29.64S
HASTINGS       RAIN      56  52  86 NW9       29.67R FOG
HEBRON         HVY RAIN  55  53  91 W5        29.69R
HOLDREGE       LGT RAIN  54  47  79 NW15      29.76R
KEARNEY *      CLOUDY    54  48  82 NW9       29.74R
YORK           LGT RAIN  54  54 100 SE6       29.67R
$$

NEZ011>018-030>034-042>045-240800-
NORTHEAST NEBRASKA

CITY           SKY/WX    TMP DP  RH WIND       PRES   REMARKS
NORFOLK        LGT RAIN  55  53  93 CALM      29.63F FOG
ALBION         RAIN      55  53  91 NW21      29.66R
BLAIR          CLOUDY    49  44  81 N16       29.64F
COLUMBUS *     CLOUDY    52  46  82 SE8       29.65R
FREMONT        CLOUDY    51  45  81 E12       29.62F
TEKAMAH        CLOUDY    51  44  77 NE15      29.64F
$$

NEZ050>053-065>068-078-088>093-240800-
SOUTHEAST NEBRASKA

CITY           SKY/WX    TMP DP  RH WIND       PRES   REMARKS
LINCOLN        CLOUDY    54  45  71 NE14      29.62F
OMAHA EPPLEY   CLOUDY    49  45  86 N13       29.65F
BEATRICE       MOCLDY    54  45  72 N14G22    29.61R
FALLS CITY     CLOUDY    69  47  45 S10       29.59R
NEBRASKA CITY  MOCLDY    59  43  54 N3        29.60F
PLATTSMOUTH    CLOUDY    52  46  77 N7        29.62F
$$

NEZ044-045-051>053-067-240800-
OMAHA AREA

CITY           SKY/WX    TMP DP  RH WIND       PRES   REMARKS
OMAHA EPPLEY   CLOUDY    49  45  86 N13       29.65F
BLAIR          CLOUDY    49  44  81 N16       29.64F
FREMONT        CLOUDY    51  45  81 E12       29.62F
MILLARD        CLOUDY    50  44  79 N5        29.64F
OFFUTT AFB     MOCLDY    52  48  84 N12       29.63F
PLATTSMOUTH    CLOUDY    52  46  77 N7        29.62F
WAHOO          CLOUDY    51  45  79 E15       29.60F
$$



USA.gov is the U.S. government's official web portal to all federal, state and local government web resources and services.